Theta_e
354 354 352 352 352 351 351 352 351 351 351 351 351 350 350 350 349 347 347 348 347 345 343 341 338 337 335 333 330 331 332 333 336 338 338 337 337 337 335 337 338 336 337 340 340 338 337 339 339 339 340 339 340 340 340 341 342 344 346 345 345 346 347
354 353 352 352 352 352 352 351 351 351 351 351 351 351 351 350 349 349 348 348 349 347 346 342 340 339 336 334 330 330 331 332 335 337 338 337 336 335 334 334 335 335 336 336 338 339 338 338 338 338 339 339 340 339 338 339 340 343 344 343 343 344 345
354 354 352 351 352 352 352 352 351 352 351 351 351 351 351 351 350 350 349 349 349 349 348 346 344 342 340 336 331 329 329 331 333 336 336 335 334 334 333 332 332 332 333 334 335 335 335 335 334 335 336 337 339 339 338 338 339 341 342 342 342 342 341
353 353 351 350 351 350 352 352 351 352 351 351 352 351 351 351 351 351 351 350 350 350 350 349 347 346 344 341 334 329 328 329 331 334 334 332 332 333 333 331 330 328 329 330 330 330 329 329 328 330 332 335 337 338 337 337 337 339 340 340 341 341 340
351 352 351 350 351 350 351 352 351 351 351 352 352 351 352 352 351 352 351 351 351 351 351 351 350 349 347 344 338 330 328 328 329 331 332 331 330 331 332 331 329 327 327 327 327 328 327 326 326 327 328 330 335 338 339 337 337 337 338 338 339 339 339
350 350 350 350 350 351 351 352 351 351 351 351 352 352 352 352 352 352 352 352 352 352 352 351 350 350 349 347 341 334 329 327 327 328 329 330 329 330 330 329 328 327 327 326 326 327 326 326 326 326 326 327 330 334 336 337 337 337 337 338 337 337 337
350 349 350 349 350 351 351 352 352 351 351 351 351 352 352 352 352 353 353 352 353 352 352 352 352 351 351 349 345 339 333 329 327 327 327 328 328 328 328 328 328 327 327 327 327 326 326 326 326 325 326 326 327 329 331 332 334 336 337 337 337 337 336
350 350 349 349 351 352 352 352 352 351 351 351 351 352 353 353 353 353 353 353 353 353 353 352 353 352 351 350 349 345 339 333 330 327 326 327 327 327 327 327 327 327 327 327 327 327 326 326 326 326 325 326 326 328 329 330 331 332 334 336 337 336 336
351 350 349 349 351 352 353 353 352 353 352 351 351 352 353 353 353 353 354 353 353 354 353 354 353 353 352 352 350 348 344 341 336 331 329 327 326 326 326 326 326 326 327 327 326 326 326 326 326 326 326 325 326 327 328 329 330 330 331 332 333 334 335
351 350 350 349 350 352 353 352 352 353 352 352 352 351 352 353 353 353 354 354 354 354 354 354 354 354 353 353 351 350 347 345 342 338 333 330 328 326 326 326 325 325 325 326 326 326 326 327 326 326 326 326 325 326 327 328 329 329 330 330 332 333 333
351 350 351 350 350 352 353 353 353 353 352 352 351 352 352 352 353 353 354 354 354 355 355 355 354 355 354 354 353 352 349 348 345 343 339 335 331 329 328 327 325 325 324 325 324 325 325 325 325 325 325 325 325 325 325 326 328 327 328 328 330 331 332
353 352 351 352 352 352 353 353 354 353 353 353 352 353 352 352 353 354 354 354 355 354 355 355 355 355 355 355 354 353 353 350 348 346 343 339 336 334 332 330 328 327 326 326 325 325 324 324 324 324 324 324 325 325 324 325 326 327 327 327 328 329 330
351 351 351 352 352 353 353 353 353 353 353 353 353 352 353 353 354 354 354 354 355 355 355 355 356 355 356 355 355 355 354 353 351 349 346 343 340 338 336 334 332 330 328 328 327 327 325 325 325 324 324 324 324 324 324 325 326 326 326 327 328 329 329
350 350 351 351 352 353 354 353 354 353 353 353 352 353 352 353 354 354 354 355 354 356 356 355 356 356 356 357 356 356 355 355 354 352 350 347 345 343 341 338 336 334 332 331 330 329 328 327 326 325 325 325 324 324 324 325 326 326 327 327 328 329 329
345 346 347 348 350 352 353 353 354 354 354 354 353 353 353 353 354 354 355 355 355 356 356 356 356 356 357 357 357 357 356 356 355 354 353 352 349 347 345 342 340 338 336 334 332 332 330 330 329 328 327 326 326 325 325 325 326 326 327 328 329 330 331
337 339 340 342 343 346 348 351 354 354 355 355 354 354 354 354 355 354 354 354 355 355 355 356 357 357 357 357 357 357 357 357 357 356 356 355 353 352 350 347 345 342 339 337 335 334 333 331 330 329 329 328 327 326 326 326 326 327 327 328 329 330 331
333 335 337 338 339 341 344 347 351 354 355 356 356 355 355 355 356 356 355 355 355 356 356 357 358 358 358 358 358 358 358 358 358 357 358 357 357 356 354 352 350 346 344 341 339 338 336 334 333 331 330 329 328 328 327 327 327 327 328 329 330 331 332
331 332 335 336 337 339 341 342 346 350 352 354 357 356 356 356 356 356 357 356 356 356 356 357 358 358 359 359 359 359 359 358 359 359 359 359 358 357 355 354 352 351 348 345 343 341 339 338 336 335 333 332 330 330 330 329 329 328 329 330 331 332 333
328 330 332 334 336 337 339 340 342 346 349 350 354 357 356 356 355 356 357 357 357 357 357 357 357 358 359 359 359 359 359 360 361 361 360 360 360 358 357 355 354 353 351 349 346 344 343 341 339 338 337 335 333 332 332 331 331 330 331 331 332 334 336
327 328 330 332 334 336 338 338 337 342 348 348 349 352 354 353 353 355 356 356 356 357 357 357 357 358 358 359 360 359 360 361 361 361 362 362 361 360 359 358 356 355 353 351 349 347 346 344 342 341 340 338 337 335 334 333 332 331 332 332 334 336 339
326 327 328 330 332 334 337 336 332 336 343 345 345 348 350 352 353 354 356 356 356 356 357 357 357 358 358 358 358 358 359 360 360 361 362 362 363 362 361 360 358 356 354 352 350 349 348 347 345 343 342 341 340 339 337 336 334 333 334 334 336 339 341
325 327 328 329 331 332 334 336 335 337 340 343 344 346 350 353 353 353 355 357 356 356 356 356 357 356 357 356 357 357 356 357 357 359 361 362 362 363 362 362 361 358 356 354 352 351 349 348 348 347 345 343 342 341 340 338 337 337 337 337 339 342 343
324 326 327 328 330 331 331 333 335 337 339 341 343 346 349 353 354 353 353 355 357 358 357 357 357 356 356 357 356 356 356 355 356 358 360 360 361 362 362 362 362 361 359 356 354 352 351 350 350 349 348 346 344 342 341 340 340 340 339 340 342 345 347
324 325 326 327 328 329 329 329 331 333 336 339 343 345 347 351 353 354 354 354 356 357 357 357 358 358 358 357 357 357 358 357 357 358 359 360 360 361 362 362 363 362 361 359 357 355 353 352 351 350 349 348 345 343 343 342 342 342 341 342 344 348 350
324 325 325 326 328 328 328 327 327 329 331 335 340 344 347 350 351 353 354 355 356 356 356 356 357 358 358 358 358 359 358 358 358 358 358 359 359 359 361 362 363 362 361 360 359 356 354 353 352 351 350 349 347 346 345 344 344 344 344 343 346 350 351
324 325 325 326 327 328 328 327 327 327 327 330 335 340 343 347 351 353 355 357 357 357 356 356 355 355 357 357 358 359 359 358 358 358 358 358 358 359 360 361 362 362 362 361 359 357 355 353 352 351 350 349 349 348 348 347 347 346 346 346 347 350 352
323 325 326 326 327 328 328 327 326 326 326 328 333 339 343 345 348 352 355 355 356 356 357 357 357 356 356 355 354 356 357 357 358 358 357 357 357 358 359 361 361 362 361 361 360 358 356 354 352 352 351 350 350 350 349 349 348 348 348 348 348 350 352
322 324 326 326 327 327 328 328 327 325 326 326 330 337 344 347 346 347 351 352 354 354 355 358 359 359 359 358 355 353 353 354 356 357 357 357 356 357 358 359 361 361 361 361 359 358 357 356 354 352 352 352 352 352 351 351 350 350 349 349 349 349 351
320 323 325 326 327 327 328 329 329 328 327 326 328 333 341 347 348 347 346 345 345 347 351 356 359 361 363 362 361 358 355 352 353 353 355 355 356 356 356 356 359 361 361 360 360 359 357 357 355 353 354 353 353 353 352 352 352 352 351 350 350 349 349
318 321 324 326 327 328 328 329 331 332 330 328 329 332 337 342 347 349 347 345 346 348 352 355 358 360 362 363 363 362 360 357 354 352 352 353 355 356 355 355 358 361 362 361 360 359 358 358 357 355 354 354 354 354 354 353 353 353 353 351 351 350 349
319 319 322 325 327 329 330 330 332 334 334 332 330 332 334 337 342 346 348 348 350 354 356 357 358 359 360 361 362 362 363 361 358 355 352 351 353 355 355 355 357 359 362 361 361 360 359 359 357 357 355 355 355 354 354 354 354 353 353 352 351 351 350
319 319 321 324 326 328 330 331 332 334 335 335 334 334 334 335 337 342 346 348 351 353 356 358 359 359 359 360 361 361 362 361 360 358 354 351 352 353 354 355 356 358 360 361 361 361 360 359 359 358 356 355 354 355 354 355 355 354 353 352 352 351 350
319 319 321 323 324 326 328 330 332 334 334 335 336 335 335 335 336 339 344 346 348 351 353 355 357 359 360 361 361 361 361 361 360 359 355 352 351 353 355 356 357 358 361 361 361 361 360 360 359 358 358 356 355 355 355 355 355 355 354 353 352 351 350
319 319 320 322 323 324 326 328 330 332 333 334 335 336 336 337 337 339 341 343 346 348 350 353 355 358 361 362 362 362 361 360 360 358 355 353 352 353 356 358 359 361 361 361 361 361 361 360 360 359 358 358 356 356 355 355 355 355 354 353 351 349 350
319 318 319 321 322 322 324 326 328 330 331 333 334 336 336 337 338 339 340 342 344 346 348 350 353 356 360 363 364 363 360 359 360 358 355 352 353 353 354 357 358 360 361 361 361 361 361 360 360 359 360 359 358 356 356 356 355 353 351 350 349 347 348
319 318 319 321 322 322 323 325 327 329 330 332 334 335 336 338 339 340 341 342 343 345 347 349 351 354 358 363 365 365 362 361 362 360 356 353 354 356 357 358 359 359 360 361 362 362 362 361 361 361 361 359 359 358 357 356 354 351 351 353 351 349 348
319 318 318 320 321 321 322 324 326 328 329 331 333 334 335 337 339 340 341 342 343 344 346 347 350 352 356 361 364 366 366 366 365 362 356 353 355 357 358 359 361 362 362 362 362 362 362 362 362 362 361 361 360 359 358 358 355 354 354 354 353 352 351
319 318 318 319 321 321 320 322 324 326 327 329 332 334 335 336 338 340 341 342 343 344 345 346 348 351 354 359 363 366 368 369 367 362 357 355 356 358 359 358 360 361 362 363 364 364 363 363 363 362 362 362 362 361 360 359 358 356 355 355 354 354 353
Wind_Speed
37 39 41 44 45 47 49 51 50 49 50 50 50 50 51 51 51 50 50 48 47 46 45 45 44 41 40 40 41 40 38 37 36 35 34 31 30 28 28 29 27 25 24 24 22 20 19 17 16 16 15 15 14 14 13 13 14 13 12 12 11 10 10
36 38 40 43 45 47 49 50 50 49 50 51 51 51 51 52 52 52 51 49 47 46 46 46 45 44 42 41 41 41 40 39 39 38 36 33 31 29 28 28 27 25 24 23 22 21 19 17 17 16 16 16 15 15 15 15 15 14 14 13 12 11 11
37 38 41 44 46 48 49 50 50 50 50 51 52 52 53 53 53 53 52 51 49 46 46 46 46 46 44 42 42 43 42 41 41 40 39 36 33 31 29 27 26 24 23 22 21 20 19 18 17 17 17 17 17 17 16 15 15 15 14 14 13 12 11
40 41 43 44 45 46 48 49 51 51 50 51 52 53 54 54 53 53 52 51 50 48 47 47 47 47 46 44 43 43 44 43 43 43 41 38 35 33 31 30 27 26 24 23 21 20 20 19 18 17 17 18 18 18 17 16 16 15 15 15 15 14 13
41 42 41 41 43 43 45 48 50 51 51 51 51 52 53 53 53 52 52 51 50 49 47 46 46 46 47 46 45 44 44 44 44 44 44 41 38 36 35 33 31 29 27 25 23 22 21 20 19 18 18 18 18 19 18 16 16 16 16 16 16 16 15
38 40 40 41 43 44 46 49 51 53 53 51 51 51 52 52 52 52 52 52 51 49 47 45 45 46 47 48 47 46 45 45 45 45 45 43 41 39 38 36 34 32 30 27 26 25 23 22 21 20 20 19 19 19 19 18 17 16 16 17 16 17 16
39 40 42 43 43 45 47 49 51 52 53 52 51 50 51 51 52 52 52 51 51 50 49 47 46 46 47 48 48 48 47 46 46 45 45 45 43 42 40 39 37 35 33 31 29 28 26 25 24 23 22 21 21 20 20 20 19 18 18 18 17 17 17
42 44 44 43 43 45 47 49 50 50 51 50 49 50 50 51 51 51 51 52 51 51 50 49 47 46 46 47 48 49 49 47 46 46 46 46 45 44 42 41 39 38 36 35 33 31 30 28 27 26 25 24 23 22 22 21 21 20 19 19 18 17 17
44 46 47 46 44 45 46 48 49 49 49 49 49 50 51 51 51 51 51 52 51 51 51 50 47 46 45 45 47 49 49 49 48 47 47 47 46 45 44 42 41 39 38 37 36 34 33 31 30 29 28 27 25 24 23 23 22 22 22 21 21 20 19
42 45 45 45 44 43 44 46 46 47 48 48 49 50 51 51 51 51 51 51 51 52 51 50 48 47 46 45 44 46 48 50 50 49 49 48 48 47 45 44 42 41 40 39 38 37 35 34 32 31 30 30 29 27 26 25 24 23 23 23 23 22 21
32 37 38 39 40 39 40 42 44 47 49 50 49 49 51 51 50 50 50 51 51 51 51 50 49 48 48 46 44 44 46 48 50 50 50 50 49 48 47 46 44 43 42 40 40 39 37 36 35 34 33 32 31 30 29 27 26 25 24 24 24 23 23
26 28 32 36 39 40 41 43 46 48 50 50 50 48 49 50 50 50 50 50 51 50 50 49 49 48 48 48 47 46 45 47 48 50 51 51 50 49 48 47 47 45 44 42 41 40 39 38 37 36 35 34 33 32 31 30 29 28 26 25 25 25 24
13 12 14 19 24 29 33 37 42 46 49 51 51 50 48 49 50 50 50 49 49 49 49 49 48 48 48 47 48 48 47 46 47 48 49 51 50 50 49 48 48 48 47 45 43 42 41 40 39 38 37 35 34 34 33 32 32 31 29 28 28 27 26
26 23 19 14 10 7 11 18 25 32 38 44 48 49 49 49 49 49 49 49 48 48 48 48 48 47 47 47 47 48 48 47 46 46 46 47 49 50 50 49 49 49 48 47 46 45 43 42 40 39 38 37 36 35 34 34 34 33 32 31 30 30 28
35 35 32 29 28 23 16 8 8 14 21 28 34 40 43 45 47 48 47 47 47 47 46 46 47 46 46 47 47 47 47 46 46 46 45 45 47 48 49 50 49 49 49 49 49 47 45 44 42 41 40 39 38 37 36 36 36 35 34 33 32 31 31
32 35 33 32 31 29 27 23 14 7 10 15 20 27 32 36 40 43 46 46 45 45 45 44 45 46 45 46 47 46 46 46 45 45 45 45 46 47 48 49 49 49 49 49 49 49 47 46 45 44 42 41 39 39 38 38 37 36 35 33 32 32 32
31 33 32 30 29 28 29 29 23 15 8 9 13 17 21 27 31 34 38 42 43 43 44 43 43 44 45 45 46 45 45 45 45 44 44 44 45 45 46 47 48 49 49 49 49 49 48 47 47 45 44 43 42 41 40 40 39 37 35 34 33 32 32
30 32 32 30 28 27 26 26 24 20 14 6 8 12 12 16 24 29 30 33 39 42 42 43 43 43 44 44 44 44 45 45 44 44 44 43 43 43 43 44 47 48 48 49 49 49 49 48 48 47 45 44 43 43 42 41 40 38 36 35 33 33 33
28 29 30 28 26 25 24 22 21 20 18 12 7 8 11 10 16 27 31 30 33 38 40 42 43 43 44 43 43 45 46 45 44 44 43 43 42 40 40 41 45 47 48 49 49 49 49 49 48 47 46 45 45 44 43 42 41 39 38 36 34 33 34
30 30 29 26 24 23 21 19 16 15 14 13 10 4 6 10 11 20 32 33 31 34 38 41 42 42 43 44 45 47 46 44 44 44 44 43 42 40 39 39 41 44 47 48 48 48 49 49 49 48 47 46 45 44 44 43 42 40 39 38 36 34 34
31 31 30 29 26 23 21 18 13 11 10 7 7 14 6 6 9 14 26 32 32 34 37 40 42 43 44 46 47 48 47 46 46 45 45 44 43 42 41 40 39 41 44 47 48 48 49 49 50 49 48 47 45 45 44 43 41 40 40 38 36 34 33
27 29 29 29 28 26 23 20 13 8 7 5 7 14 12 4 6 10 17 24 28 32 35 38 41 43 45 47 48 48 47 47 48 48 47 45 45 45 44 43 41 40 41 44 46 47 48 49 50 50 49 47 46 45 44 42 41 40 40 38 36 34 33
24 26 27 26 27 26 22 20 16 10 8 9 9 11 10 3 5 6 9 18 24 28 31 34 39 42 44 46 47 47 46 46 47 49 49 47 46 46 45 45 43 41 40 42 45 46 48 49 49 50 49 48 47 45 44 42 40 40 39 38 36 34 33
23 24 25 26 27 27 24 21 19 14 9 10 9 10 11 9 9 6 4 11 18 24 28 31 36 40 43 44 45 46 45 45 47 48 49 48 48 47 46 45 44 43 42 42 43 44 46 48 48 49 49 49 48 46 44 42 40 39 38 37 37 36 34
22 22 23 25 25 27 27 25 21 17 14 12 9 8 11 10 9 9 5 4 9 16 23 29 33 37 42 44 44 45 46 46 47 48 48 49 49 48 47 46 45 44 43 42 42 43 44 46 47 48 49 49 48 47 45 43 41 39 38 37 37 37 35
23 20 21 23 24 24 26 26 24 21 20 18 12 10 11 10 10 12 11 8 8 11 17 24 30 33 37 41 43 45 47 48 49 48 47 48 49 48 46 46 46 45 44 43 43 42 43 45 47 48 48 48 48 47 46 44 42 41 39 38 38 38 36
23 19 18 20 22 23 25 26 25 24 23 23 19 13 12 12 13 15 15 13 13 13 14 17 22 25 28 33 38 43 46 49 50 49 47 47 47 46 45 45 45 46 46 45 44 43 43 44 46 47 48 48 48 47 47 46 44 42 40 39 39 39 37
25 20 17 17 19 22 25 26 26 27 27 27 23 17 13 13 15 17 19 19 19 17 16 16 18 20 22 26 32 37 41 45 47 48 47 46 45 45 44 44 44 45 46 45 45 44 44 44 46 47 47 47 47 47 48 47 46 44 42 40 40 40 40
26 24 20 18 18 20 24 26 27 28 30 30 28 21 15 14 16 18 22 24 23 21 20 20 19 20 21 24 27 32 36 41 43 44 44 45 46 46 45 44 44 45 46 46 45 45 44 45 46 46 47 46 47 48 48 48 47 46 44 42 41 41 42
26 26 22 19 17 18 20 23 25 26 28 30 30 25 19 16 18 20 22 24 24 23 22 22 22 23 24 25 27 30 33 37 41 42 42 43 45 46 46 45 44 44 45 46 46 45 45 45 46 47 47 47 47 48 48 48 48 47 46 45 44 43 43
25 27 23 19 18 16 16 20 23 24 25 27 29 29 24 19 20 23 24 24 24 23 23 24 25 26 27 28 29 31 32 34 38 41 42 41 42 44 45 45 45 44 45 46 46 46 46 46 46 47 47 47 48 48 49 48 48 48 48 47 46 45 44
25 26 23 19 18 17 16 17 20 21 23 24 26 29 28 23 21 24 26 26 25 25 25 26 27 29 29 30 31 32 33 33 35 39 41 42 42 43 43 44 46 46 46 47 47 48 48 47 47 47 48 49 49 50 49 48 48 48 49 48 47 47 45
25 25 23 19 18 18 17 18 19 20 22 24 25 28 30 28 23 22 25 27 27 27 27 28 30 31 30 30 31 32 33 33 34 37 41 43 43 43 44 45 46 47 47 48 49 49 49 48 48 48 49 50 50 50 48 47 47 48 49 50 49 48 46
25 24 22 19 18 18 18 19 19 20 22 24 26 27 30 32 29 26 25 27 28 29 30 30 31 32 31 30 31 32 33 34 34 36 41 44 44 44 45 46 46 47 48 49 50 50 50 50 50 49 50 50 50 49 47 47 48 49 51 51 50 48 46
24 22 21 20 18 17 19 19 19 19 21 23 25 27 28 31 33 30 27 27 29 31 32 33 33 34 32 30 30 31 32 33 33 35 41 45 45 45 46 47 47 47 48 49 49 50 51 51 51 50 49 49 49 49 49 50 51 52 52 52 50 48 46
23 20 20 20 19 17 17 18 17 18 19 21 22 24 25 28 30 30 29 29 31 33 35 35 34 34 34 32 30 30 31 32 33 35 40 44 45 45 46 47 47 47 48 48 49 50 51 51 50 47 45 46 48 49 51 52 53 52 51 50 49 48 45
22 20 20 21 20 17 17 17 17 17 18 20 21 21 22 24 26 28 29 30 31 33 35 36 35 35 35 33 31 30 29 30 32 36 40 44 45 45 46 47 48 47 48 48 49 50 50 50 48 46 44 45 46 47 49 51 51 50 50 49 49 48 46
22 20 20 20 20 18 17 18 18 18 18 20 22 22 22 22 23 25 28 30 32 34 36 36 36 36 35 34 32 31 29 27 30 36 41 43 45 46 46 47 48 49 50 50 50 49 49 48 46 44 44 44 44 45 47 48 49 49 50 49 48 47 45
Wind_Direction
199 200 199 199 198 197 197 196 195 195 195 196 197 197 198 199 200 202 204 207 209 211 212 214 215 215 213 210 208 207 207 207 208 209 209 209 210 209 206 206 208 208 203 200 204 208 206 203 204 205 206 207 209 210 209 207 206 206 208 210 207 203 204
199 201 200 200 201 199 198 197 196 195 195 197 198 198 199 200 201 202 204 207 209 212 214 215 216 217 215 211 209 208 208 208 209 210 212 212 212 213 209 208 210 210 208 206 204 206 208 208 208 208 210 211 212 213 214 211 206 206 211 216 217 212 210
198 200 200 201 202 201 200 198 197 196 196 197 198 199 200 201 202 204 205 207 209 211 214 216 217 219 218 214 211 209 209 210 210 211 214 215 214 214 212 212 213 214 215 212 208 206 207 210 213 212 212 214 216 217 215 212 209 207 209 216 222 222 220
198 200 201 201 203 202 201 200 199 198 197 198 199 200 201 203 204 205 207 208 209 211 213 216 218 219 220 217 213 211 210 211 211 212 216 218 217 216 214 215 217 218 219 218 215 212 211 214 216 215 215 214 215 219 219 215 213 212 211 214 221 227 228
198 199 199 200 202 203 202 201 201 200 200 200 200 201 202 203 204 206 207 209 210 213 215 216 218 219 221 220 216 212 211 212 213 214 216 219 220 218 217 218 219 220 222 221 220 219 217 217 218 218 219 217 213 215 219 220 219 218 218 216 219 226 229
196 196 197 199 200 202 203 202 202 202 202 201 201 202 203 204 205 206 208 209 210 213 215 216 218 220 221 221 219 215 213 213 214 215 217 219 220 220 220 221 221 221 222 222 222 222 221 221 222 222 224 224 219 216 218 221 222 221 223 222 222 225 227
192 193 197 199 198 200 203 203 203 203 203 203 202 203 203 204 206 207 208 209 210 211 213 214 217 219 220 221 221 219 216 214 215 216 217 219 221 222 222 223 223 223 224 224 223 223 223 223 225 227 228 229 227 224 223 222 222 223 224 226 226 224 225
192 194 196 197 198 200 201 202 203 203 203 203 202 203 204 205 206 207 208 210 211 211 212 214 217 218 220 221 222 222 220 217 216 217 218 220 222 223 224 224 224 225 225 226 226 225 225 225 226 230 232 232 231 231 230 228 226 224 224 228 230 228 226
192 195 196 197 197 199 201 202 202 202 202 202 203 203 204 205 206 207 209 210 211 211 213 215 217 218 220 221 222 224 223 221 219 218 219 220 222 224 225 226 226 226 227 227 228 228 227 227 228 230 232 234 233 233 233 233 231 228 227 228 231 233 232
194 196 196 196 196 198 200 201 201 201 201 201 203 204 205 206 207 208 209 210 211 212 214 215 216 217 219 221 223 224 224 224 223 221 220 221 223 224 225 227 228 228 229 230 230 230 230 230 230 231 233 235 235 235 234 234 234 233 231 229 231 233 235
197 197 194 193 195 197 198 199 200 200 201 201 202 204 206 206 207 208 209 211 212 213 214 215 216 216 218 220 222 223 224 226 225 224 223 223 224 225 226 227 229 230 231 231 232 233 233 233 233 233 234 235 237 237 237 236 236 236 235 233 233 234 234
207 203 199 196 197 198 199 200 201 202 201 201 201 203 205 207 208 208 210 211 213 214 214 215 216 216 217 219 220 222 224 225 226 226 226 226 226 226 227 228 229 230 232 232 233 234 235 235 235 235 235 236 237 238 239 240 240 240 240 240 239 238 236
186 186 191 196 199 202 203 203 204 204 203 202 202 203 205 207 207 208 209 211 212 214 215 215 215 216 217 218 220 222 224 225 226 228 229 229 229 229 229 229 230 231 232 233 234 235 236 236 236 236 237 237 237 238 239 241 243 244 245 246 246 245 241
79 74 72 74 82 138 186 202 208 209 208 207 206 206 207 208 208 209 210 210 212 214 215 215 215 215 217 218 219 222 225 227 228 229 230 231 232 232 231 231 231 232 233 234 235 235 236 237 238 238 238 238 239 239 239 241 243 245 246 247 248 248 246
60 59 60 57 55 62 76 102 180 207 213 214 213 211 210 210 210 210 210 210 211 213 215 215 215 215 217 218 220 224 226 227 228 229 231 232 233 233 233 233 233 234 234 235 235 236 237 238 238 239 239 239 239 240 240 240 242 244 246 247 248 248 249
46 50 52 49 47 49 54 62 81 134 188 205 214 217 216 215 213 211 211 211 211 212 214 215 215 216 217 219 221 225 226 227 229 230 231 232 233 235 235 234 234 234 235 235 236 237 237 237 238 239 240 240 240 240 240 241 242 244 246 247 248 248 249
34 41 43 41 40 42 44 51 63 80 115 176 199 208 215 218 217 213 212 212 211 211 213 214 215 216 218 220 222 224 226 228 229 231 232 233 234 235 236 236 234 234 234 235 236 237 238 237 237 238 239 240 240 240 240 241 243 245 245 246 247 247 248
25 30 33 32 32 36 39 43 50 59 68 104 179 191 199 213 217 215 214 214 213 213 213 214 215 216 218 220 222 224 226 228 230 231 233 234 235 235 236 236 235 234 233 234 236 237 238 238 238 238 239 240 241 241 241 242 243 245 246 246 246 246 246
21 22 27 26 23 25 30 34 40 50 62 80 125 182 196 212 221 216 214 216 216 215 214 214 216 217 217 219 221 225 228 229 230 231 232 234 235 235 237 237 236 234 233 233 235 236 237 238 238 238 238 239 240 241 242 243 244 245 246 247 246 246 246
20 18 21 23 21 22 25 29 35 42 61 88 87 81 197 222 246 227 218 218 218 217 218 217 217 218 219 220 223 228 230 230 231 233 234 235 235 235 236 238 238 236 234 233 234 235 236 238 238 239 239 239 240 242 243 244 244 244 245 246 247 247 247
19 15 12 13 16 20 23 28 36 37 47 78 50 27 45 201 246 244 225 222 221 221 222 222 222 222 223 225 228 231 232 233 235 235 234 234 235 235 237 239 240 238 235 233 233 234 236 237 238 239 240 239 239 241 242 244 244 245 245 245 246 247 247
18 14 9 6 8 11 14 19 26 23 13 357 343 8 32 124 225 250 230 221 220 220 221 225 227 228 229 230 233 234 235 236 237 237 235 233 233 234 237 239 241 240 237 235 234 235 236 237 238 239 240 240 239 240 242 244 245 245 245 245 245 245 246
8 10 7 2 2 4 5 6 10 7 343 327 330 352 5 344 273 271 227 214 219 220 220 223 227 232 235 236 237 237 238 238 238 237 236 234 232 234 236 238 240 240 239 236 235 234 235 236 238 239 239 240 239 239 241 242 244 245 245 245 244 244 244
357 357 358 357 355 354 354 356 1 2 341 318 321 340 340 315 284 276 215 208 224 228 227 226 226 230 236 238 240 240 240 240 239 238 236 235 234 235 236 237 239 240 239 238 237 236 236 236 238 239 239 239 240 240 241 242 244 244 245 245 244 243 242
354 350 347 349 350 348 346 345 346 345 337 324 305 307 324 313 274 266 273 248 243 244 243 238 233 233 237 240 242 243 243 243 242 239 238 237 237 237 237 237 238 239 240 240 240 239 238 236 237 238 239 239 240 241 242 243 244 245 245 244 243 242 242
352 349 341 341 346 346 341 337 335 332 331 331 319 295 300 299 267 261 274 281 278 277 267 255 248 247 247 246 244 244 244 244 243 241 241 241 240 239 238 237 237 237 239 240 240 240 238 236 236 237 238 239 239 240 242 243 244 245 245 245 244 242 241
346 348 344 339 340 342 337 330 327 324 322 326 327 311 294 287 268 259 264 267 271 282 285 274 266 264 261 256 251 247 246 245 244 244 245 245 242 239 239 238 237 237 238 239 238 238 237 235 235 235 237 238 239 239 241 242 244 245 246 246 245 243 242
344 345 346 341 336 335 334 330 324 319 314 317 322 319 304 287 271 262 262 263 265 274 284 284 276 272 270 267 260 254 251 249 247 247 248 247 243 240 239 239 238 238 238 237 237 237 236 235 234 234 235 238 239 240 241 242 244 245 246 246 245 244 243
344 346 347 346 337 329 328 328 326 318 312 311 315 317 309 291 277 267 262 260 262 269 276 279 277 273 271 269 265 261 258 254 251 249 248 246 243 240 240 240 239 237 237 236 236 235 235 234 233 233 234 236 238 240 241 242 243 244 246 246 245 245 244
339 343 346 349 345 334 324 323 324 321 312 307 308 311 307 293 283 275 266 263 266 271 274 276 276 274 271 268 266 264 262 259 255 253 250 247 242 239 238 239 238 237 236 236 235 235 234 234 233 232 232 234 237 239 241 242 242 243 245 245 245 245 246
331 336 340 345 348 344 330 320 321 322 316 307 303 304 303 294 285 280 275 272 274 277 280 281 279 274 270 267 265 264 263 262 259 256 253 250 244 240 237 236 235 235 235 235 234 234 233 233 232 231 231 233 235 237 239 241 241 242 244 245 245 245 246
324 329 333 341 348 350 343 329 321 321 320 312 304 302 302 298 287 279 278 278 278 280 283 285 283 277 272 268 266 264 263 263 260 256 254 251 247 243 240 237 234 233 233 232 233 233 234 233 232 232 232 233 235 236 238 239 240 241 243 244 245 245 246
319 322 328 337 346 350 350 341 329 324 323 319 312 305 303 301 294 282 276 277 281 283 284 284 283 280 276 272 270 267 264 263 259 254 250 247 245 242 238 235 233 232 230 229 230 231 232 232 232 232 232 233 235 235 236 237 238 239 242 244 245 245 245
314 317 323 333 343 348 351 347 338 331 330 326 319 311 306 304 300 292 280 276 279 282 282 280 280 279 278 277 274 269 265 263 260 253 246 243 241 238 235 232 230 229 229 230 231 230 230 232 232 232 233 234 234 234 234 235 237 238 240 243 245 245 244
311 313 318 328 338 348 352 352 345 341 339 333 324 315 309 305 302 297 289 281 279 281 281 280 279 278 278 279 279 272 264 261 260 252 244 239 237 236 235 234 233 232 232 233 235 235 236 236 236 236 237 236 234 233 233 234 237 240 242 243 246 247 246
308 310 315 323 333 345 353 355 352 349 347 342 333 322 313 307 303 299 293 285 281 282 283 282 281 280 279 280 282 276 266 259 257 251 242 237 234 231 230 231 233 234 235 236 237 238 238 239 240 242 243 241 239 237 237 238 242 244 244 244 246 249 250
302 306 310 318 328 341 353 356 355 353 351 349 344 334 322 313 307 301 295 288 284 282 283 284 283 281 279 279 283 282 272 262 257 251 243 237 232 229 228 228 229 231 234 235 236 236 236 237 239 242 244 245 244 243 242 243 244 245 244 245 247 250 252
296 301 304 309 321 335 350 356 355 355 354 352 351 346 334 321 312 303 297 292 287 284 283 283 283 281 279 279 282 282 276 268 261 252 243 235 229 226 227 228 229 230 231 232 232 233 234 235 237 239 243 245 246 246 244 244 243 243 244 245 247 250 252